Погода в Самоцвете

Россия / Свердловская область     57°36′16″N   61°46′46″E
темп.,
°C
ветер,
м/с
пор.,
м/с
влажн.,
%
обл.,
%
осадки,
мм/ч
давл.,
гПа
погр.,
м
26 февраля, пт
пт2623:00−21з129996 0.1 102820
02:00−23з2298100 0.0 102820
05:00−25з229675 0.1 102820
08:00−26зюз119825 0.0 102819
11:00−19ююз128813 0.0 1028234
14:00−15ююв238022 0.0 1027572
17:00−16ююв358960 0.0 1026398
20:00−22ююв389756 0.0 1025160
27 февраля, сб
сб2723:00−25ююв369847 0.0 1025126
02:00−27ююв35981 0.0 1024114
05:00−28юв38970 0.0 1023186
08:00−28юв499742 0.0 1021233
11:00−24юв489569 0.0 1020319
14:00−20юв5993100 0.0 1018439
17:00−19вюв51094100 0.1 1017500
20:00−19вюв51095100 0.4 1016591
28 февраля, вс
вс2823:00−19вюв4996100 0.8 1014458
02:00−19в4897100 0.4 1013406
05:00−19всв4896100 0.9 1012397
08:00−19всв4997100 0.4 1011350
11:00−18св4795100 0.9 1012383
14:00−16св4793100 0.4 1011477
17:00−16св4794100 0.8 1012510
20:00−17св4896100 0.4 1013422
1 марта, пн
пн123:00−18ссв3796100 0.7 1014347
02:00−19с3797100 0.2 1015303
05:00−20с3797100 0.4 1016303
08:00−22ссз3698100 0.1 1017222
11:00−20ссз3596100 0.1 1018258
14:00−16ссз3588100 0.0 1018499
17:00−15сз2491100 0.1 1018491
20:00−19зсз229787 0.0 101920
2 марта, вт
вт223:00−20зюз239743 0.0 101927
02:00−20зюз36970 0.0 101790
05:00−20зюз37940 0.0 1016138
08:00−19зюз4109117 0.0 1014246
11:00−14юз5108654 0.0 1011379
14:00−10юз51182100 0.0 1009573
17:00−9юз51093100 0.3 1008628
20:00−10юз51192100 0.4 1007729